User: anonymous   Login
Location: Rehoboth Beach
(38.7438°N, 75.1341°W)
Time: 06:00:07
(UTC-04:00)
Language:

Cosmos 1452 Rocket - Orbit

View from above orbital plane
View from above orbital plane
View from above satellite
View from above satellite

Ground track
Ground track

The orbit data is extracted from the following two-line orbital elements,

1 13992U 83031B   15141.68274204  .00000205  00000-0  79567-4 0  9999
2 13992 074.0527 316.3430 0004405 132.9575 301.5668 14.35940394680078
Epoch (UTC): 21 May 2015 16:23:08
Eccentricity: 0.0004405
inclination: 74.0527°
perigee height: 769 km
apogee height: 775 km
right ascension of ascending node: 316.3430°
argument of perigee: 132.9575°
revolutions per day: 14.35940394
mean anomaly at epoch: 301.5668°
orbit number at epoch: 68007

The dashed part of the orbit path shows where the satellite is in the earth's shadow,  

DLR